Weather History for Asheville, NC

Change the Weather History Date:

Saturday, January 19, 2008

  Actual Average Record
Temperature  
Mean Temperature 32 °F 37 °F  
Max Temperature 37 °F 47 °F 70 °F (1974)
Min Temperature 27 °F 27 °F -5 °F (1994)
Degree Days  
Heating Degree Days 33 28  
Month to date heating degree days 511 532  
Since 1 July heating degree days 1969 2193  
Cooling Degree Days 0 0  
Month to date cooling degree days 0 0  
Year to date cooling degree days 0 0  
Moisture  
Dew Point 20 °F    
Average Humidity 62    
Maximum Humidity 85    
Minimum Humidity 38    
Precipitation  
Precipitation T in 0.13 in 1.38 in (1950)
Month to date precipitation 1.76 2.21  
Year to date precipitation 1.76 2.21  
Snow  
Snow T in 0.10 in 3.50 in (1893)
Month to date snowfall 3.7 2.5  
Since 1 July snowfall 3.8 3.5  
Snow Depth -    
Sea Level Pressure  
Sea Level Pressure 30.05 in    
Wind  
Wind Speed 12 mph (NNW)    
Max Wind Speed 21 mph    
Max Gust Speed 24 mph    
Visibility 8 miles    
Events Snow    
T = Trace of Precipitation, MM = Missing Value Source: NWS Daily Summary

Daily Weather History Graph

Daily Weather History Graph

Search for Another Location

Airport:

Trip Planner

Search our weather history database for the weather conditions in past years. The results will help you decide how hot, cold, wet, or windy it might be!

Date:

Astronomy

Jan. 19, 2008 Rise Set
Actual Time 7:37 AM EST 5:44 PM EST
Civil Twilight 7:10 AM EST 6:11 PM EST
Nautical Twilight 6:38 AM EST 6:42 PM EST
Astronomical Twilight 6:08 AM EST 7:13 PM EST
Moon 2:34 PM EST (1/19) 5:04 AM EST (1/19)
Length of Visible Light 11h 01m
Length of Day
10h 06m
Waxing Gibbous, 89% of the Moon is Illuminated
Jan 19
Waxing Gibbous
Jan 22
Full
Jan 30
Last Quarter
Feb 6
New
Feb 13
First Quarter

Hourly Weather History & Observations

Time (EST) Temp. Windchill Dew Point Humidity Pressure Visibility Wind Dir Wind Speed Gust Speed Precip Events Conditions
12:54 AM 37.0 °F 33.3 °F 18.0 °F 46% 30.07 in 10.0 mi North 4.6 mph - N/A   Scattered Clouds
1:54 AM 37.0 °F 28.5 °F 16.0 °F 42% 30.06 in 10.0 mi NNW 13.8 mph - N/A   Overcast
2:54 AM 36.0 °F 26.0 °F 16.0 °F 44% 30.07 in 10.0 mi NNW 17.3 mph - N/A   Overcast
3:54 AM 35.6 °F 26.2 °F 15.8 °F 44% 30.08 in 10.0 mi NNW 15.0 mph 21.9 mph N/A   Overcast
4:54 AM 35.1 °F 25.9 °F 16.0 °F 46% 30.08 in 10.0 mi NNW 13.8 mph 18.4 mph N/A   Overcast
5:54 AM 35.1 °F 26.9 °F 16.0 °F 46% 30.07 in 10.0 mi NNW 11.5 mph - N/A   Overcast
6:54 AM 34.0 °F 25.0 °F 17.1 °F 50% 30.09 in 10.0 mi NNW 12.7 mph - N/A   Overcast
7:54 AM 33.1 °F 23.9 °F 15.1 °F 48% 30.10 in 10.0 mi NNW 12.7 mph - N/A   Overcast
8:54 AM 33.1 °F 24.9 °F 12.9 °F 43% 30.06 in 10.0 mi NNW 10.4 mph - N/A   Overcast
9:54 AM 33.1 °F 23.9 °F 12.9 °F 43% 30.06 in 10.0 mi NNW 12.7 mph - N/A   Overcast
10:54 AM 34.0 °F 27.2 °F 10.9 °F 38% 30.08 in 10.0 mi NNW 8.1 mph - N/A   Mostly Cloudy
11:54 AM 35.1 °F 27.4 °F 12.0 °F 39% 30.06 in 10.0 mi North 10.4 mph - N/A   Overcast
12:38 PM 32.0 °F 22.1 °F 21.2 °F 64% 30.04 in 6.0 mi NNW 13.8 mph - 0.00 in Snow Light Snow
12:54 PM 32.0 °F 24.2 °F 24.1 °F 73% 30.07 in 3.0 mi NNW 9.2 mph - 0.00 in Snow Light Snow
1:09 PM 30.2 °F 19.3 °F 24.8 °F 80% 30.05 in 1.8 mi NNW 15.0 mph - 0.00 in Snow Light Snow
1:21 PM 30.2 °F 20.2 °F 26.6 °F 86% 30.04 in 1.2 mi North 12.7 mph - 0.00 in Snow Light Snow
1:54 PM 30.0 °F 19.5 °F 26.1 °F 85% 30.05 in 1.0 mi NNW 13.8 mph 19.6 mph 0.00 in Snow Light Snow
2:09 PM 30.2 °F 20.2 °F 26.6 °F 86% 30.01 in 1.5 mi NNW 12.7 mph - 0.00 in Snow Light Snow
2:16 PM 30.2 °F 20.8 °F 26.6 °F 86% 30.01 in 1.8 mi NNW 11.5 mph - 0.00 in Snow Light Snow
2:54 PM 30.0 °F 19.1 °F 25.0 °F 82% 30.04 in 10.0 mi North 15.0 mph 20.7 mph 0.00 in   Overcast
3:14 PM 30.2 °F 20.2 °F 24.8 °F 80% 29.99 in 7.0 mi North 12.7 mph - 0.00 in Snow Light Snow
3:51 PM 30.2 °F 20.2 °F 24.8 °F 80% 29.98 in 7.0 mi North 12.7 mph - 0.00 in   Mostly Cloudy
3:54 PM 30.9 °F 19.8 °F 24.1 °F 76% 30.00 in 7.0 mi North 16.1 mph 20.7 mph 0.00 in   Mostly Cloudy
4:54 PM 30.9 °F 21.2 °F 23.0 °F 72% 30.01 in 10.0 mi North 12.7 mph 23.0 mph N/A   Overcast
5:54 PM 30.0 °F 20.0 °F 19.9 °F 66% 30.01 in 10.0 mi North 12.7 mph 18.4 mph 0.00 in   Overcast
6:54 PM 30.9 °F 21.7 °F 19.0 °F 61% 30.02 in 10.0 mi NNW 11.5 mph 20.7 mph N/A   Overcast
7:54 PM 30.9 °F 22.2 °F 19.0 °F 61% 30.03 in 10.0 mi North 10.4 mph - N/A   Overcast
8:54 PM 30.0 °F 20.0 °F 19.0 °F 64% 30.04 in 10.0 mi North 12.7 mph - N/A   Overcast
9:54 PM 28.9 °F 17.3 °F 19.0 °F 67% 30.06 in 10.0 mi North 16.1 mph - N/A   Overcast
10:54 PM 28.0 °F 18.6 °F 18.0 °F 66% 30.06 in 10.0 mi North 10.4 mph 18.4 mph N/A   Overcast
11:54 PM 27.0 °F 18.0 °F 16.0 °F 63% 30.05 in 10.0 mi NNW 9.2 mph 17.3 mph N/A   Scattered Clouds